MDT,Max TemperatureF,Mean TemperatureF,Min TemperatureF,Max Dew PointF,MeanDew PointF,Min DewpointF,Max Humidity, Mean Humidity, Min Humidity, Max Sea Level PressureIn, Mean Sea Level PressureIn, Min Sea Level PressureIn, Max VisibilityMiles, Mean VisibilityMiles, Min VisibilityMiles, Max Wind SpeedMPH, Mean Wind SpeedMPH, Max Gust SpeedMPH,PrecipitationIn, CloudCover, Events, WindDirDegrees
2013-7-1,81,68,54,52,49,45,86,58,30,30.24,30.20,30.16,10,10,7,13,5,18,0.00,2,,110
2013-7-2,82,66,49,48,44,41,77,51,25,30.22,30.15,30.06,10,10,7,13,5,,0.00,1,,136
2013-7-3,89,70,51,46,44,40,77,48,18,30.08,29.94,29.83,10,10,10,17,8,30,0.00,0,,160
2013-7-4,94,76,58,51,46,43,60,40,19,29.86,29.81,29.74,10,10,10,25,9,33,0.00,1,Thunderstorm,160
2013-7-5,95,79,62,55,52,48,65,44,22,29.76,29.69,29.62,10,10,10,22,12,28,T,0,,144
2013-7-6,98,80,61,61,57,51,78,50,22,29.75,29.70,29.63,10,10,10,15,5,20,0.00,0,,333
2013-7-7,97,81,65,66,62,58,87,57,27,30.03,29.86,29.76,10,9,5,32,11,41,0.18,2,Rain-Thunderstorm,65
2013-7-8,95,79,63,68,64,59,93,63,33,29.95,29.89,29.82,10,10,5,14,7,20,0.00,0,,99
2013-7-9,96,81,66,70,65,61,93,62,30,30.04,29.93,29.86,10,8,3,18,7,25,T,0,Rain-Thunderstorm,7
2013-7-10,89,78,66,68,62,53,90,61,32,30.24,30.06,29.94,10,10,10,24,11,31,0.02,2,Rain-Thunderstorm,103
2013-7-11,96,80,63,64,60,55,93,59,25,30.02,29.91,29.79,10,10,9,23,11,30,0.00,0,,156
2013-7-12,104,88,71,64,59,52,68,43,18,29.84,29.78,29.70,10,10,10,17,9,22,0.00,0,,166
2013-7-13,99,82,65,67,63,61,87,59,31,30.00,29.85,29.77,10,10,5,33,9,48,0.08,1,Rain-Thunderstorm,343
2013-7-14,85,76,67,70,67,63,97,80,62,30.13,30.01,29.84,10,8,0,29,8,40,0.98,4,Fog-Rain-Thunderstorm,28
2013-7-15,84,73,62,64,58,49,100,66,31,30.22,30.13,30.06,10,8,1,20,10,28,T,3,Rain,155
2013-7-16,85,73,61,61,59,57,97,69,40,30.24,30.17,30.11,10,10,5,22,12,35,0.00,4,,157
2013-7-17,88,74,60,61,59,58,97,67,36,30.25,30.17,30.08,10,10,9,25,15,35,0.00,1,,175
2013-7-18,94,80,66,62,60,57,87,59,30,30.09,29.96,29.84,10,10,10,22,12,29,0.00,0,,177
2013-7-19,92,78,63,66,62,57,100,68,36,30.07,29.96,29.90,10,10,10,23,8,31,0.01,2,Rain-Thunderstorm,29
2013-7-20,90,75,59,65,60,54,100,68,36,29.96,29.90,29.81,10,9,4,32,7,43,0.00,1,,136
2013-7-21,92,75,57,63,57,54,93,63,32,29.96,29.83,29.73,10,10,10,16,9,26,0.00,1,,149
2013-7-22,96,81,65,70,61,55,90,58,26,29.90,29.81,29.74,10,10,6,18,9,25,0.13,1,Rain-Thunderstorm,128
2013-7-23,92,78,64,62,57,51,81,54,26,30.02,29.91,29.81,10,10,10,26,9,36,0.00,0,,98
2013-7-24,91,75,58,63,59,53,100,65,29,30.26,30.11,29.97,10,6,0,20,7,26,0.27,4,Fog-Rain-Thunderstorm,136
2013-7-25,81,71,60,67,63,57,93,76,58,30.11,30.04,29.98,10,10,7,14,6,17,0.03,3,Rain,38
2013-7-26,84,72,59,62,57,53,97,66,34,30.25,30.14,30.09,10,9,5,20,6,25,T,1,,31
2013-7-27,70,64,57,54,52,50,86,72,57,30.20,30.09,30.01,10,10,10,22,12,28,T,4,Rain-Thunderstorm,111
2013-7-28,60,58,55,58,55,51,100,88,75,30.08,30.02,29.97,10,7,0,16,9,20,0.01,8,Fog-Rain,128
2013-7-29,75,67,58,63,61,57,100,82,64,30.07,29.99,29.93,10,6,0,13,4,14,0.02,5,Fog,118
2013-7-30,90,75,60,64,62,56,100,66,32,30.23,30.11,29.97,10,5,0,30,7,43,T,5,Fog-Rain-Thunderstorm,224
2013-7-31,89,76,62,65,62,59,93,66,39,30.25,30.13,30.04,10,10,6,16,7,20,0.00,2,Thunderstorm,104